Orbital Elements at Epoch 2459200.5 (2020-Dec-17.0) TDB
Reference: JPL 23 (heliocentric ecliptic J2000)
Element | Value | Uncertainty (1-sigma) | Units |
e | .1113108019659116 | 2.369e-08 | |
a | 2.290133821664895 | 7.3571e-09 | au |
q | 2.035217189366118 | 5.4641e-08 | au |
i | 6.188934539463534 | 2.6829e-07 | deg |
node | 7.924033471003306 | 5.588e-06 | deg |
peri | 31.92450251644107 | 7.2919e-06 | deg |
M | 292.4134575197128 | 5.733e-06 | deg |
tp | 2459438.155268741382 (2021-Aug-11.65526874) | 2.1016e-05 | TDB |
period | 1265.871778717655 3.47 | 6.0999e-06 1.67e-08 | d yr |
n | .2843889926708729 | 1.3704e-09 | deg/d |
Q | 2.545050453963673 | 8.176e-09 | au |
|
| | Orbit Determination Parameters
Additional Information
|